Tracking 19245 objects as of 14-Aug-2018
HD Live streaming from Space Station
objects crossing your sky now

IRIDIUM 163

Track IRIDIUM 163 now!
10-day predictions
IRIDIUM 163 is classified as:


NORAD ID: 43575
Int'l Code: 2018-061G
Perigee: 720.3 km
Apogee: 722.2 km
Inclination: 86.5 °
Period: 99.1 minutes
Semi major axis: 7092 km
RCS: Unknown
Launch date: July 25, 2018
Source: United States (US)
Launch site: AIR FORCE WESTERN TEST RANGE (AFWTR)
aabbcc
Your satellite tracking list
Your tracking list is empty




NASA's NSSDC Master Catalog

Two Line Element Set (TLE):
1 43575U 18061G   18224.92694770 +.00000014 +00000-0 -17193-5 0  9993
2 43575 086.5026 174.1343 0001341 118.8955 241.2386 14.53553509002695
Source of the keplerian elements: AFSPC